MAL2604 KORD-KJFK

Flight info

Callsign MAL2604
Flight time 1h 40m
Altitude 33000
Route DUFEE LOGGR HAAKK DOXXY SOSIC JHW Q476 WLKES PUCKY1
Aircraft B38M/M-SDE1FGHILORVWXY/HB1

Departure

Time 2026-05-07 01:32
Airport Chicago O'Hare International Airport (KORD)

Arrival

Time 2026-05-07 03:12
Airport John F. Kennedy International Airport (KJFK)
Time Latitude Longitude Altitude Speed Heading
2026-05-07 01:18 41.97727 -87.89300 673 ft 0 kts 71°
2026-05-07 01:21 41.97722 -87.89320 671 ft 4 kts 76°
2026-05-07 01:21 41.97718 -87.89356 671 ft 4 kts 88°
2026-05-07 01:21 41.97719 -87.89392 671 ft 4 kts 97°
2026-05-07 01:21 41.97720 -87.89425 670 ft 4 kts 65°
2026-05-07 01:22 41.97719 -87.89430 671 ft 1 kts 359°
2026-05-07 01:22 41.97716 -87.89430 671 ft 0 kts 359°
2026-05-07 01:27 41.97718 -87.89427 671 ft 1 kts 43°
2026-05-07 01:27 41.97716 -87.89420 671 ft 1 kts 126°
2026-05-07 01:27 41.97698 -87.89422 672 ft 8 kts 185°
2026-05-07 01:27 41.97607 -87.89430 673 ft 18 kts 182°
2026-05-07 01:28 41.97476 -87.89431 670 ft 19 kts 180°
2026-05-07 01:28 41.97337 -87.89431 673 ft 20 kts 180°
2026-05-07 01:28 41.97220 -87.89428 673 ft 13 kts 155°
2026-05-07 01:28 41.97195 -87.89319 673 ft 13 kts 89°
2026-05-07 01:29 41.97196 -87.89186 673 ft 15 kts 89°
2026-05-07 01:29 41.97196 -87.89039 673 ft 16 kts 90°
2026-05-07 01:29 41.97195 -87.88881 673 ft 18 kts 90°
2026-05-07 01:29 41.97196 -87.88712 672 ft 19 kts 89°
2026-05-07 01:30 41.97197 -87.88535 672 ft 19 kts 90°
2026-05-07 01:30 41.97197 -87.88347 673 ft 20 kts 90°
2026-05-07 01:30 41.97196 -87.88191 673 ft 16 kts 90°
2026-05-07 01:30 41.97174 -87.88049 673 ft 16 kts 142°
2026-05-07 01:31 41.97065 -87.88032 672 ft 17 kts 179°
2026-05-07 01:31 41.96969 -87.88011 672 ft 12 kts 192°
2026-05-07 01:31 41.96901 -87.88087 672 ft 20 kts 221°
2026-05-07 01:31 41.96593 -87.88452 669 ft 97 kts 221°
2026-05-07 01:32 41.95924 -87.89248 685 ft 157 kts 221°
2026-05-07 01:32 41.95037 -87.90315 1148 ft 182 kts 223°
2026-05-07 01:32 41.93837 -87.91134 1707 ft 213 kts 190°
2026-05-07 01:32 41.92386 -87.90578 2468 ft 232 kts 143°
2026-05-07 01:33 41.91491 -87.88833 3417 ft 227 kts 108°
2026-05-07 01:33 41.91426 -87.86667 3906 ft 246 kts 72°
2026-05-07 01:33 41.92431 -87.84798 4303 ft 253 kts 29°
2026-05-07 01:33 41.94033 -87.83916 4659 ft 252 kts 17°
2026-05-07 01:34 41.95640 -87.82959 4661 ft 255 kts 31°
2026-05-07 01:34 41.96866 -87.81238 4659 ft 261 kts 59°
2026-05-07 01:34 41.97518 -87.78905 4765 ft 275 kts 73°
2026-05-07 01:34 41.98049 -87.76383 4886 ft 281 kts 73°
2026-05-07 01:35 41.98557 -87.73870 4981 ft 283 kts 74°
2026-05-07 01:35 41.99063 -87.71309 5008 ft 283 kts 74°
2026-05-07 01:35 41.99557 -87.68760 5008 ft 283 kts 75°
2026-05-07 01:35 42.00050 -87.66190 5029 ft 285 kts 75°
2026-05-07 01:36 42.00545 -87.63595 5718 ft 284 kts 75°
2026-05-07 01:36 42.01032 -87.61027 6652 ft 287 kts 75°
2026-05-07 01:36 42.01527 -87.58418 7487 ft 291 kts 75°
2026-05-07 01:36 42.02026 -87.55777 8341 ft 294 kts 75°
2026-05-07 01:37 42.02534 -87.53089 9158 ft 298 kts 75°
2026-05-07 01:37 42.03049 -87.50356 9969 ft 302 kts 75°
2026-05-07 01:37 42.03568 -87.47601 10548 ft 314 kts 75°
2026-05-07 01:37 42.04124 -87.44640 10888 ft 335 kts 75°
2026-05-07 01:38 42.04705 -87.41547 11271 ft 351 kts 75°
2026-05-07 01:38 42.05312 -87.38306 11840 ft 359 kts 75°
2026-05-07 01:38 42.05927 -87.35019 12624 ft 362 kts 75°
2026-05-07 01:38 42.06531 -87.31782 13298 ft 366 kts 75°
2026-05-07 01:39 42.07157 -87.28427 14022 ft 369 kts 75°
2026-05-07 01:39 42.07785 -87.25048 14706 ft 373 kts 75°
2026-05-07 01:39 42.08416 -87.21651 15386 ft 377 kts 75°
2026-05-07 01:39 42.09050 -87.18231 16045 ft 380 kts 75°
2026-05-07 01:40 42.09689 -87.14781 16679 ft 384 kts 75°
2026-05-07 01:40 42.10345 -87.11230 17301 ft 387 kts 75°
2026-05-07 01:40 42.10988 -87.07744 17890 ft 391 kts 76°
2026-05-07 01:40 42.11336 -87.04108 18463 ft 394 kts 88°
2026-05-07 01:41 42.11465 -87.00406 19015 ft 398 kts 87°
2026-05-07 01:41 42.11606 -86.96667 19567 ft 401 kts 87°
2026-05-07 01:41 42.11744 -86.92904 20100 ft 404 kts 87°
2026-05-07 01:41 42.11881 -86.89117 20630 ft 407 kts 87°
2026-05-07 01:42 42.12019 -86.85290 21136 ft 410 kts 87°
2026-05-07 01:42 42.12156 -86.81436 21639 ft 413 kts 87°
2026-05-07 01:42 42.12293 -86.77560 22117 ft 416 kts 87°
2026-05-07 01:42 42.12430 -86.73648 22601 ft 419 kts 87°
2026-05-07 01:43 42.12566 -86.69720 23068 ft 422 kts 87°
2026-05-07 01:43 42.12701 -86.65759 23516 ft 425 kts 87°
2026-05-07 01:43 42.12837 -86.61761 23956 ft 427 kts 87°
2026-05-07 01:43 42.12972 -86.57750 24383 ft 430 kts 87°
2026-05-07 01:44 42.13104 -86.53770 24789 ft 433 kts 87°
2026-05-07 01:44 42.13237 -86.49719 25193 ft 435 kts 87°
2026-05-07 01:44 42.13370 -86.45632 25592 ft 438 kts 87°
2026-05-07 01:44 42.13502 -86.41518 25976 ft 440 kts 87°
2026-05-07 01:45 42.13634 -86.37378 26350 ft 443 kts 87°
2026-05-07 01:45 42.13764 -86.33219 26713 ft 445 kts 87°
2026-05-07 01:45 42.13894 -86.29040 27071 ft 448 kts 88°
2026-05-07 01:45 42.14022 -86.24831 27417 ft 450 kts 88°
2026-05-07 01:46 42.14150 -86.20636 27759 ft 452 kts 88°
2026-05-07 01:46 42.14278 -86.16387 28092 ft 454 kts 88°
2026-05-07 01:46 42.14399 -86.12116 28410 ft 457 kts 89°
2026-05-07 01:46 42.14364 -86.07827 28724 ft 459 kts 91°
2026-05-07 01:47 42.14338 -86.04983 28929 ft 460 kts 90°
2026-05-07 01:47 42.14307 -86.00665 29233 ft 462 kts 90°
2026-05-07 01:47 42.14279 -85.96311 29533 ft 464 kts 90°
2026-05-07 01:47 42.14251 -85.91956 29827 ft 467 kts 90°
2026-05-07 01:48 42.14222 -85.87599 30120 ft 468 kts 90°
2026-05-07 01:48 42.14191 -85.83207 30401 ft 470 kts 90°
2026-05-07 01:48 42.14158 -85.78781 30671 ft 472 kts 90°
2026-05-07 01:48 42.14123 -85.74344 30937 ft 474 kts 90°
2026-05-07 01:49 42.14086 -85.69885 31205 ft 476 kts 90°
2026-05-07 01:49 42.14048 -85.65412 31481 ft 478 kts 91°
2026-05-07 01:49 42.14008 -85.60949 31829 ft 477 kts 91°
2026-05-07 01:49 42.13966 -85.56469 32189 ft 476 kts 91°
2026-05-07 01:50 42.13923 -85.52047 32532 ft 476 kts 91°
2026-05-07 01:50 42.13877 -85.47583 32866 ft 475 kts 91°
2026-05-07 01:50 42.13831 -85.43123 33021 ft 476 kts 91°
2026-05-07 01:51 42.13732 -85.34244 33012 ft 473 kts 91°
2026-05-07 01:51 42.13627 -85.25382 33008 ft 473 kts 91°
2026-05-07 01:52 42.13515 -85.16523 33010 ft 476 kts 91°
2026-05-07 01:52 42.13396 -85.07518 33006 ft 484 kts 91°
2026-05-07 01:53 42.13245 -84.98448 33007 ft 484 kts 91°
2026-05-07 01:53 42.13085 -84.89394 33009 ft 484 kts 91°
2026-05-07 01:54 42.12918 -84.80347 33008 ft 484 kts 91°
2026-05-07 01:54 42.12744 -84.71269 33008 ft 484 kts 91°
2026-05-07 01:55 42.12562 -84.62203 33008 ft 484 kts 91°
2026-05-07 01:55 42.12376 -84.53213 33007 ft 484 kts 91°
2026-05-07 01:56 42.12555 -84.44146 32874 ft 483 kts 83°
2026-05-07 01:56 42.13055 -84.39703 33194 ft 479 kts 84°
2026-05-07 01:56 42.13436 -84.35216 33010 ft 483 kts 87°
2026-05-07 01:57 42.13741 -84.26198 33016 ft 484 kts 92°
2026-05-07 01:57 42.13861 -84.17151 32997 ft 484 kts 88°
2026-05-07 01:58 42.15272 -84.08319 33003 ft 484 kts 68°
2026-05-07 01:58 42.16971 -83.99616 32965 ft 481 kts 86°
2026-05-07 01:59 42.17478 -83.90604 32981 ft 485 kts 85°
2026-05-07 01:59 42.18893 -83.81769 33057 ft 484 kts 77°
2026-05-07 02:00 42.20290 -83.72949 32998 ft 483 kts 82°
2026-05-07 02:00 42.21356 -83.64001 33007 ft 484 kts 83°
2026-05-07 02:01 42.22330 -83.55012 33009 ft 484 kts 83°
2026-05-07 02:01 42.22832 -83.46036 33012 ft 481 kts 98°
2026-05-07 02:02 42.21624 -83.37130 32995 ft 484 kts 104°
2026-05-07 02:02 42.20990 -83.28184 32981 ft 485 kts 86°
2026-05-07 02:02 42.21657 -83.23667 33010 ft 484 kts 73°
2026-05-07 02:03 42.22548 -83.19328 33062 ft 483 kts 82°
2026-05-07 02:03 42.22806 -83.14815 32995 ft 481 kts 93°
2026-05-07 02:03 42.22629 -83.10309 33004 ft 482 kts 97°
2026-05-07 02:04 42.22367 -83.01260 32983 ft 485 kts 87°
2026-05-07 02:04 42.23072 -82.92215 33042 ft 484 kts 88°
2026-05-07 02:05 42.23334 -82.83157 33006 ft 484 kts 91°
2026-05-07 02:05 42.23420 -82.74074 33007 ft 484 kts 91°
2026-05-07 02:06 42.23448 -82.64989 33007 ft 484 kts 92°
2026-05-07 02:06 42.23464 -82.55906 33007 ft 484 kts 92°
2026-05-07 02:07 42.23474 -82.46850 33008 ft 484 kts 92°
2026-05-07 02:07 42.23475 -82.33212 33008 ft 484 kts 92°
2026-05-07 02:08 42.23466 -82.24127 33008 ft 484 kts 92°
2026-05-07 02:08 42.23452 -82.15072 33009 ft 484 kts 92°
2026-05-07 02:09 42.23430 -82.06039 33007 ft 484 kts 92°
2026-05-07 02:09 42.23400 -81.96954 33009 ft 484 kts 92°
2026-05-07 02:10 42.23363 -81.87811 33008 ft 484 kts 92°
2026-05-07 02:10 42.23319 -81.78745 33008 ft 484 kts 92°
2026-05-07 02:11 42.23268 -81.69724 33009 ft 484 kts 92°
2026-05-07 02:11 42.23210 -81.60576 33008 ft 484 kts 92°
2026-05-07 02:12 42.23144 -81.51536 33008 ft 484 kts 92°
2026-05-07 02:12 42.23072 -81.42478 33008 ft 484 kts 92°
2026-05-07 02:13 42.22993 -81.33406 33008 ft 484 kts 92°
2026-05-07 02:13 42.22905 -81.24313 33009 ft 484 kts 92°
2026-05-07 02:14 42.22814 -81.15795 33006 ft 484 kts 92°
2026-05-07 02:14 42.22713 -81.06641 32788 ft 496 kts 98°
2026-05-07 02:15 42.22581 -81.01987 32941 ft 495 kts 100°
2026-05-07 02:15 42.22317 -80.97356 32994 ft 497 kts 103°
2026-05-07 02:15 42.21293 -80.88079 32957 ft 504 kts 110°
2026-05-07 02:16 42.19620 -80.78932 32950 ft 510 kts 115°
2026-05-07 02:16 42.17656 -80.69639 32942 ft 522 kts 114°
2026-05-07 02:17 42.16042 -80.59959 32944 ft 537 kts 107°
2026-05-07 02:17 42.15422 -80.49806 32951 ft 554 kts 93°
2026-05-07 02:18 42.16676 -80.39492 32946 ft 564 kts 71°
2026-05-07 02:18 42.19843 -80.29762 32938 ft 573 kts 70°
2026-05-07 02:19 42.20901 -80.24638 32951 ft 576 kts 84°
2026-05-07 02:19 42.21090 -80.19190 32942 ft 572 kts 100°
2026-05-07 02:19 42.19542 -80.08896 32930 ft 566 kts 114°
2026-05-07 02:20 42.17499 -79.98563 32936 ft 578 kts 107°
2026-05-07 02:20 42.17054 -79.93132 32932 ft 586 kts 95°
2026-05-07 02:20 42.17388 -79.87631 32948 ft 589 kts 80°
2026-05-07 02:21 42.19735 -79.77109 32960 ft 586 kts 78°
2026-05-07 02:21 42.20157 -79.71709 32928 ft 576 kts 98°
2026-05-07 02:21 42.19520 -79.66447 32939 ft 566 kts 114°
2026-05-07 02:22 42.16539 -79.56775 32941 ft 556 kts 126°
2026-05-07 02:22 42.13435 -79.47206 32938 ft 566 kts 116°
2026-05-07 02:23 42.12548 -79.41988 32963 ft 576 kts 103°
2026-05-07 02:23 42.12005 -79.36667 33052 ft 574 kts 106°
2026-05-07 02:23 42.10526 -79.26146 32966 ft 569 kts 109°
2026-05-07 02:24 42.08865 -79.15768 32974 ft 568 kts 110°
2026-05-07 02:24 42.07141 -79.05384 32987 ft 567 kts 110°
2026-05-07 02:25 42.05419 -78.95055 32975 ft 565 kts 110°
2026-05-07 02:25 42.03690 -78.84755 32957 ft 565 kts 110°
2026-05-07 02:26 42.01960 -78.74494 32936 ft 566 kts 110°
2026-05-07 02:26 42.00205 -78.64163 32930 ft 567 kts 110°
2026-05-07 02:27 41.98726 -78.55497 32910 ft 570 kts 110°
2026-05-07 02:27 41.96649 -78.43395 32914 ft 573 kts 110°
2026-05-07 02:28 41.94848 -78.32965 32905 ft 572 kts 110°
2026-05-07 02:28 41.93345 -78.24308 32933 ft 572 kts 111°
2026-05-07 02:29 41.91530 -78.13911 32939 ft 572 kts 111°
2026-05-07 02:29 41.89705 -78.03517 32960 ft 572 kts 111°
2026-05-07 02:30 41.87872 -77.93135 32950 ft 572 kts 111°
2026-05-07 02:30 41.85726 -77.82928 32960 ft 566 kts 123°
2026-05-07 02:31 41.82155 -77.73542 32940 ft 569 kts 128°
2026-05-07 02:31 41.80419 -77.68732 32946 ft 580 kts 122°
2026-05-07 02:31 41.79074 -77.63577 32934 ft 593 kts 111°
2026-05-07 02:32 41.78419 -77.58097 32951 ft 600 kts 99°
2026-05-07 02:32 41.77741 -77.52665 32970 ft 587 kts 116°
2026-05-07 02:32 41.76181 -77.47795 32902 ft 567 kts 131°
2026-05-07 02:32 41.73981 -77.43419 32920 ft 556 kts 141°
2026-05-07 02:33 41.68980 -77.35591 32916 ft 555 kts 142°
2026-05-07 02:33 41.66649 -77.31493 32922 ft 568 kts 134°
2026-05-07 02:33 41.64760 -77.26821 32920 ft 584 kts 120°
2026-05-07 02:34 41.63558 -77.21515 32942 ft 596 kts 106°
2026-05-07 02:34 41.63162 -77.16037 32954 ft 602 kts 92°
2026-05-07 02:34 41.63016 -77.10466 33004 ft 597 kts 103°
2026-05-07 02:34 41.62091 -77.05125 32918 ft 583 kts 118°
2026-05-07 02:35 41.58782 -76.95351 32930 ft 577 kts 126°
2026-05-07 02:35 41.55626 -76.85486 32767 ft 585 kts 114°
2026-05-07 02:36 41.54777 -76.80167 32436 ft 586 kts 101°
2026-05-07 02:36 41.54681 -76.74760 32113 ft 581 kts 91°
2026-05-07 02:36 41.54458 -76.69435 31975 ft 565 kts 107°
2026-05-07 02:36 41.53378 -76.64501 31723 ft 546 kts 123°
2026-05-07 02:37 41.51633 -76.60148 31429 ft 528 kts 136°
2026-05-07 02:37 41.49447 -76.56288 31109 ft 514 kts 144°
2026-05-07 02:37 41.47067 -76.52787 30799 ft 506 kts 147°
2026-05-07 02:37 41.44704 -76.49410 30842 ft 488 kts 147°
2026-05-07 02:38 41.42525 -76.46079 31256 ft 465 kts 144°
2026-05-07 02:38 41.40508 -76.42725 31462 ft 469 kts 142°
2026-05-07 02:38 41.38542 -76.39137 31325 ft 487 kts 138°
2026-05-07 02:38 41.36671 -76.35329 31273 ft 502 kts 134°
2026-05-07 02:39 41.34926 -76.31222 31273 ft 518 kts 127°
2026-05-07 02:39 41.33426 -76.26767 31112 ft 539 kts 120°
2026-05-07 02:39 41.32295 -76.21932 30480 ft 556 kts 109°
2026-05-07 02:39 41.31700 -76.16839 29769 ft 560 kts 101°
2026-05-07 02:40 41.31288 -76.11682 29182 ft 552 kts 109°
2026-05-07 02:40 41.30053 -76.07009 29286 ft 523 kts 129°
2026-05-07 02:40 41.28090 -76.03097 29608 ft 506 kts 142°
2026-05-07 02:40 41.25769 -75.99612 29714 ft 505 kts 147°
2026-05-07 02:41 41.23404 -75.96114 29607 ft 511 kts 141°
2026-05-07 02:41 41.21369 -75.92130 29266 ft 534 kts 127°
2026-05-07 02:41 41.19961 -75.87505 28982 ft 548 kts 112°
2026-05-07 02:41 41.19318 -75.82504 28665 ft 554 kts 97°
2026-05-07 02:42 41.19447 -75.77384 28389 ft 554 kts 88°
2026-05-07 02:42 41.19652 -75.72353 28154 ft 550 kts 94°
2026-05-07 02:42 41.19250 -75.67376 27868 ft 535 kts 111°
2026-05-07 02:42 41.18029 -75.62786 27542 ft 523 kts 123°
2026-05-07 02:43 41.16572 -75.58350 27201 ft 527 kts 112°
2026-05-07 02:43 41.15777 -75.53587 26901 ft 532 kts 102°
2026-05-07 02:43 41.14998 -75.48857 26552 ft 526 kts 112°
2026-05-07 02:43 41.13772 -75.44328 26299 ft 522 kts 115°
2026-05-07 02:44 41.12567 -75.39836 25992 ft 520 kts 114°
2026-05-07 02:44 41.11372 -75.35312 25605 ft 519 kts 114°
2026-05-07 02:44 41.10190 -75.30791 25064 ft 516 kts 113°
2026-05-07 02:44 41.09021 -75.26311 24539 ft 511 kts 113°
2026-05-07 02:45 41.07862 -75.21880 24012 ft 507 kts 113°
2026-05-07 02:45 41.06710 -75.17486 23492 ft 503 kts 113°
2026-05-07 02:45 41.05570 -75.13138 22967 ft 499 kts 114°
2026-05-07 02:45 41.04438 -75.08831 22446 ft 493 kts 113°
2026-05-07 02:46 41.03327 -75.04607 21919 ft 478 kts 114°
2026-05-07 02:46 41.02246 -75.00511 21410 ft 464 kts 114°
2026-05-07 02:46 41.01191 -74.96526 20898 ft 452 kts 114°
2026-05-07 02:46 41.00155 -74.92618 20403 ft 450 kts 114°
2026-05-07 02:47 40.99121 -74.88716 19892 ft 449 kts 114°
2026-05-07 02:47 40.98087 -74.84815 19373 ft 448 kts 114°
2026-05-07 02:47 40.97055 -74.80936 18868 ft 446 kts 114°
2026-05-07 02:47 40.96034 -74.77099 18368 ft 444 kts 114°
2026-05-07 02:48 40.95011 -74.73266 17868 ft 442 kts 114°
2026-05-07 02:48 40.93990 -74.69444 17370 ft 439 kts 114°
2026-05-07 02:48 40.92972 -74.65639 16865 ft 437 kts 114°
2026-05-07 02:48 40.91960 -74.61860 16379 ft 435 kts 114°
2026-05-07 02:49 40.90952 -74.58104 15878 ft 432 kts 114°
2026-05-07 02:49 40.89948 -74.54370 15386 ft 430 kts 114°
2026-05-07 02:49 40.88947 -74.50650 14891 ft 428 kts 114°
2026-05-07 02:49 40.87954 -74.46964 14387 ft 427 kts 114°
2026-05-07 02:50 40.86965 -74.43302 13889 ft 418 kts 114°
2026-05-07 02:50 40.86003 -74.39742 13394 ft 405 kts 114°
2026-05-07 02:50 40.85069 -74.36292 12907 ft 393 kts 114°
2026-05-07 02:50 40.84167 -74.32927 12403 ft 383 kts 112°
2026-05-07 02:51 40.83703 -74.29503 11909 ft 381 kts 95°
2026-05-07 02:51 40.83705 -74.26028 11407 ft 372 kts 96°
2026-05-07 02:51 40.83158 -74.22771 10875 ft 356 kts 119°
2026-05-07 02:51 40.81896 -74.20090 10507 ft 335 kts 133°
2026-05-07 02:52 40.80692 -74.17554 10486 ft 317 kts 124°
2026-05-07 02:52 40.79707 -74.15017 10296 ft 312 kts 121°
2026-05-07 02:52 40.78809 -74.12412 10013 ft 311 kts 118°
2026-05-07 02:52 40.77991 -74.09819 9684 ft 308 kts 116°
2026-05-07 02:53 40.77202 -74.07161 9349 ft 307 kts 115°
2026-05-07 02:53 40.76451 -74.04537 9024 ft 305 kts 114°
2026-05-07 02:53 40.75711 -74.01921 8708 ft 304 kts 115°
2026-05-07 02:53 40.74674 -73.99535 8374 ft 297 kts 131°
2026-05-07 02:54 40.73435 -73.97362 8071 ft 297 kts 132°
2026-05-07 02:54 40.72194 -73.95201 7751 ft 296 kts 132°
2026-05-07 02:54 40.70948 -73.93044 7433 ft 295 kts 132°
2026-05-07 02:54 40.69699 -73.90895 7119 ft 295 kts 133°
2026-05-07 02:55 40.68465 -73.88779 6804 ft 294 kts 133°
2026-05-07 02:55 40.67234 -73.86666 6486 ft 293 kts 133°
2026-05-07 02:55 40.66062 -73.84423 6163 ft 294 kts 128°
2026-05-07 02:55 40.64953 -73.82211 5858 ft 293 kts 128°
2026-05-07 02:56 40.63808 -73.79950 5524 ft 293 kts 129°
2026-05-07 02:56 40.62687 -73.77755 5214 ft 292 kts 129°
2026-05-07 02:56 40.61563 -73.75565 5025 ft 285 kts 130°
2026-05-07 02:56 40.60470 -73.73441 4994 ft 273 kts 130°
2026-05-07 02:57 40.59436 -73.71429 4998 ft 259 kts 130°
2026-05-07 02:57 40.58451 -73.69518 4987 ft 246 kts 131°
2026-05-07 02:57 40.57494 -73.67665 5012 ft 244 kts 130°
2026-05-07 02:57 40.56541 -73.65820 4996 ft 244 kts 131°
2026-05-07 02:58 40.55591 -73.63966 4999 ft 245 kts 128°
2026-05-07 02:58 40.55037 -73.61845 4943 ft 253 kts 95°
2026-05-07 02:58 40.55365 -73.59585 4967 ft 258 kts 64°
2026-05-07 02:58 40.56390 -73.57661 5005 ft 259 kts 43°
2026-05-07 02:59 40.57708 -73.56036 5011 ft 260 kts 39°
2026-05-07 02:59 40.59073 -73.54492 5003 ft 259 kts 36°
2026-05-07 02:59 40.60477 -73.53009 5000 ft 258 kts 34°
2026-05-07 02:59 40.61902 -73.51564 4996 ft 259 kts 34°
2026-05-07 03:00 40.63339 -73.50142 5001 ft 259 kts 32°
2026-05-07 03:00 40.64832 -73.48848 4985 ft 256 kts 24°
2026-05-07 03:00 40.66397 -73.47711 5013 ft 256 kts 24°
2026-05-07 03:00 40.67953 -73.46565 4995 ft 256 kts 24°
2026-05-07 03:01 40.69546 -73.45534 4998 ft 254 kts 21°
2026-05-07 03:01 40.71140 -73.44532 5009 ft 254 kts 21°
2026-05-07 03:01 40.72728 -73.43523 5000 ft 254 kts 21°
2026-05-07 03:01 40.74348 -73.42663 4969 ft 245 kts
2026-05-07 03:02 40.75983 -73.42747 4872 ft 229 kts 334°
2026-05-07 03:02 40.77271 -73.43681 4841 ft 199 kts 310°
2026-05-07 03:02 40.78136 -73.44981 4710 ft 182 kts 300°
2026-05-07 03:02 40.78869 -73.46255 4556 ft 171 kts 297°
2026-05-07 03:03 40.79548 -73.47507 4400 ft 159 kts 295°
2026-05-07 03:03 40.80145 -73.48658 4138 ft 147 kts 294°
2026-05-07 03:03 40.80710 -73.49680 3904 ft 131 kts 293°
2026-05-07 03:03 40.81207 -73.50664 3505 ft 130 kts 291°
2026-05-07 03:04 40.81683 -73.51680 3093 ft 129 kts 289°
2026-05-07 03:04 40.82121 -73.52729 2979 ft 126 kts 277°
2026-05-07 03:04 40.82088 -73.53806 3030 ft 119 kts 254°
2026-05-07 03:04 40.81958 -73.54891 3051 ft 119 kts 255°
2026-05-07 03:05 40.81830 -73.55966 3005 ft 118 kts 255°
2026-05-07 03:05 40.81670 -73.57029 2995 ft 118 kts 253°
2026-05-07 03:05 40.81483 -73.58078 3004 ft 118 kts 251°
2026-05-07 03:05 40.81281 -73.59121 2979 ft 118 kts 251°
2026-05-07 03:06 40.81075 -73.60185 2978 ft 120 kts 251°
2026-05-07 03:06 40.80866 -73.61254 3009 ft 121 kts 250°
2026-05-07 03:06 40.80658 -73.62324 2995 ft 120 kts 251°
2026-05-07 03:06 40.80450 -73.63393 2994 ft 121 kts 251°
2026-05-07 03:07 40.80242 -73.64459 3032 ft 118 kts 251°
2026-05-07 03:07 40.79944 -73.65434 2945 ft 114 kts 227°
2026-05-07 03:07 40.79268 -73.66010 2953 ft 118 kts 217°
2026-05-07 03:07 40.78573 -73.66597 3043 ft 119 kts 216°
2026-05-07 03:08 40.77867 -73.67160 3046 ft 118 kts 214°
2026-05-07 03:08 40.77160 -73.67696 3028 ft 116 kts 214°
2026-05-07 03:08 40.76455 -73.68225 2825 ft 116 kts 212°
2026-05-07 03:08 40.75774 -73.68835 2506 ft 121 kts 211°
2026-05-07 03:09 40.75013 -73.69356 2137 ft 126 kts 198°
2026-05-07 03:09 40.74201 -73.69867 1905 ft 135 kts 204°
2026-05-07 03:09 40.73365 -73.70492 1798 ft 139 kts 205°
2026-05-07 03:09 40.72511 -73.71117 1846 ft 144 kts 206°
2026-05-07 03:10 40.71645 -73.71799 1767 ft 146 kts 204°
2026-05-07 03:10 40.70748 -73.72420 1662 ft 146 kts 204°
2026-05-07 03:10 40.69850 -73.73033 1536 ft 146 kts 205°
2026-05-07 03:10 40.68934 -73.73633 1350 ft 146 kts 205°
2026-05-07 03:11 40.68323 -73.74035 1199 ft 145 kts 207°
2026-05-07 03:11 40.67445 -73.74647 956 ft 143 kts 208°
2026-05-07 03:11 40.66573 -73.75271 694 ft 142 kts 208°
2026-05-07 03:11 40.65719 -73.75889 419 ft 141 kts 208°
2026-05-07 03:12 40.64858 -73.76495 209 ft 141 kts 209°
2026-05-07 03:12 40.64015 -73.77155 31 ft 136 kts 210°
2026-05-07 03:12 40.63336 -73.77683 27 ft 87 kts 211°
2026-05-07 03:12 40.62970 -73.77970 25 ft 49 kts 211°
2026-05-07 03:13 40.62685 -73.78193 26 ft 35 kts 212°
2026-05-07 03:13 40.62654 -73.78330 26 ft 16 kts 299°
2026-05-07 03:13 40.62738 -73.78373 23 ft 9 kts 35°
2026-05-07 03:13 40.62781 -73.78317 25 ft 8 kts 46°
2026-05-07 03:14 40.62823 -73.78267 24 ft 8 kts 37°
2026-05-07 03:14 40.62866 -73.78229 25 ft 7 kts 29°
2026-05-07 03:14 40.62936 -73.78175 23 ft 6 kts 31°
2026-05-07 03:15 40.62979 -73.78141 26 ft 8 kts 31°
2026-05-07 03:15 40.63042 -73.78092 24 ft 11 kts 28°
2026-05-07 03:15 40.63091 -73.78105 24 ft 7 kts 316°
2026-05-07 03:15 40.63117 -73.78152 25 ft 6 kts 300°
2026-05-07 03:16 40.63140 -73.78207 23 ft 8 kts 300°
2026-05-07 03:16 40.63169 -73.78270 23 ft 8 kts 302°
2026-05-07 03:16 40.63198 -73.78329 24 ft 6 kts 313°
2026-05-07 03:16 40.63223 -73.78338 25 ft 1 kts 13°
2026-05-07 03:17 40.63243 -73.78327 27 ft 12 kts 22°
2026-05-07 03:17 40.63329 -73.78269 26 ft 14 kts 30°
2026-05-07 03:17 40.63410 -73.78256 26 ft 12 kts 321°
2026-05-07 03:17 40.63470 -73.78315 24 ft 11 kts
2026-05-07 03:18 40.63538 -73.78332 26 ft 10 kts 321°
2026-05-07 03:18 40.63572 -73.78396 25 ft 8 kts 300°
2026-05-07 03:18 40.63599 -73.78457 26 ft 8 kts 300°
2026-05-07 03:18 40.63632 -73.78530 26 ft 10 kts 301°
2026-05-07 03:19 40.63665 -73.78603 24 ft 9 kts 301°
2026-05-07 03:19 40.63710 -73.78702 26 ft 15 kts 301°
2026-05-07 03:19 40.63764 -73.78821 24 ft 15 kts 301°
2026-05-07 03:19 40.63825 -73.78910 24 ft 10 kts 346°
2026-05-07 03:20 40.63840 -73.78907 23 ft 1 kts 41°
2026-05-07 03:20 40.63875 -73.78848 25 ft 11 kts 50°
2026-05-07 03:20 40.63942 -73.78813 23 ft 10 kts 12°
2026-05-07 03:20 40.63993 -73.78816 24 ft 3 kts 313°
2026-05-07 03:21 40.63995 -73.78823 26 ft 0 kts 286°
2026-05-07 03:21 40.63991 -73.78847 23 ft 2 kts 256°
2026-05-07 03:21 40.63991 -73.78862 23 ft 1 kts 282°
2026-05-07 03:21 40.63993 -73.78870 25 ft 2 kts 291°
2026-05-07 03:22 40.64003 -73.78888 23 ft 1 kts 309°
2026-05-07 03:22 40.64005 -73.78891 26 ft 0 kts 310°